Regional Weather Roundup
Issued by NWS Goodland, KS

Home | Current Version | Previous Version | Graphics & Text | Print | Product List | Glossary On
Versions: 1 2 3 4 5 6 7 8 9 10 11 12 13 14 15 16 17 18 19 20 21 22 23 24 25 26 27 28 29 30 31 32 33 34 35 36 37 38 39 40 41 42 43 44 45 46 47 48 49 50
000
ASUS43 KGLD 190059
RWRGLD

GOODLAND FORECAST AREA HOURLY WEATHER ROUNDUP
NATIONAL WEATHER SERVICE GOODLAND KS
700 PM MDT WED OCT 18 2017

...OFFICIAL OBSERVATIONS...

CITY           SKY/WX    TMP DP  RH WIND       PRES   REMARKS
GOODLAND KS    CLEAR     52  34  50 E7        30.10R
HILL CITY KS   CLEAR     62  39  42 N13       30.06R
IMPERIAL NEB   CLEAR     53  31  42 E8        30.10S
MCCOOK NEB     CLEAR     56  35  45 NE9       30.09R
AKRON CO       CLEAR     57  22  25 E10       30.12R
BURLINGTON CO  CLEAR     57  27  31 E8        30.12R
LIMON CO       CLEAR     49  23  36 CALM      30.16R
$$

...UNOFFICIAL OBSERVATIONS...

CITY           SKY/WX    TMP DP  RH WIND       PRES   REMARKS
LENORA KS        N/A     58  32  37 MISG        N/A
NORTON KS      CLEAR     54  32  43 N8        30.07
SHARON SPRINGS   N/A     64  31  28 E5          N/A
TRENTON NEB      N/A     58  32  37 E7          N/A
YUMA CO        FAIR      52  28  40 E7        30.11R
$$




USA.gov is the U.S. government's official web portal to all federal, state and local government web resources and services.